Flag for Lebanon Weather past 2 weeks in Sidon, Lebanon

Now
55 °F

Passing clouds.


Feels Like: 54 °F
Forecast: 59 / 64 °F
Wind: 6 mph from East

Location: Beirut Airport

Current Time: Dec 21, 2014 at 4:20:09 AM

Latest Report: Dec 21, 2014 at 3:00 AM


Visibility: 4 mi

Pressure: 30.12 "Hg

Humidity: 72%

Dew point: 46 °F

Location of SidonLocation

Historic Weather in Sidon — Graph

°F

Sidon temperature yesterday

Maximum temperature yesterday: 68 °F (at 2:00 PM)
Minimum temperature yesterday: 59 °F (at 8:00 AM)
Average temperature yesterday: 62 °F

Past Weeks' High & Low Weather Summary

 TemperatureHumidityPressure
High81 °F (Dec 8, 10:00 PM)88% (Dec 12, 8:00 PM)30.30 "Hg (Dec 12, 8:00 PM)
Low55 °F (Dec 21, 2:00 AM)24% (Dec 8, 11:00 PM)29.80 "Hg (Dec 9, 1:00 AM)
Average65 °F62%30.10 "Hg
* Reported Dec 6 3:00 AM — Dec 21 3:00 AM, Sidon, Weather by CustomWeather, © 2014

Note: Actual official high and low records may vary slightly from our data, if they occured in-between our weather recording intervals... More about our weather records

Advertising

Sidon weather history for previous 24 hours

 ConditionsComfort  
Time TempWeatherWind HumidityBarometerVisibility
3:00 AM
Dec 21
55 °FPassing clouds.6 mph72%30.12 "Hg4 mi
2:00 AM55 °FSprinkles. Passing clouds.6 mph77%30.15 "Hg4 mi
1:00 AM57 °FPassing clouds.2 mph77%30.15 "Hg4 mi
12:00 AM59 °FSprinkles. Passing clouds.10 mph68%30.15 "Hg5 mi
11:00 PM
Dec 20
59 °FPassing clouds.5 mph72%30.15 "HgN/A
10:00 PM59 °FPassing clouds.5 mph72%30.15 "Hg5 mi
9:00 PM59 °FPassing clouds.5 mph72%30.15 "HgN/A
8:00 PM59 °FPassing clouds.6 mph77%30.15 "HgN/A
7:00 PM59 °FPassing clouds.5 mph72%30.15 "HgN/A
6:00 PM59 °FPassing clouds.6 mph72%30.12 "Hg5 mi
5:00 PM61 °FPassing clouds.7 mph63%30.12 "Hg5 mi
4:00 PM61 °FPassing clouds.10 mph68%30.12 "Hg5 mi
3:00 PM66 °FPassing clouds.5 mph60%30.12 "Hg5 mi
2:00 PM68 °FPassing clouds.6 mph56%30.09 "Hg5 mi
1:00 PM66 °FPassing clouds.7 mph60%30.09 "Hg5 mi
12:00 PM66 °FPartly sunny.7 mph56%30.12 "Hg4 mi
11:00 AM66 °FPartly sunny.5 mph60%30.12 "Hg4 mi
10:00 AM64 °FPartly sunny.5 mph68%30.15 "Hg4 mi
9:00 AM59 °FPartly sunny.6 mph82%30.15 "Hg4 mi
8:00 AM59 °FHeavy rain. Partly sunny.10 mph82%30.15 "Hg3 mi
7:00 AM61 °FPartly sunny.5 mph68%30.12 "Hg5 mi
6:00 AM61 °FPassing clouds.3 mph68%30.12 "Hg5 mi
5:00 AM61 °FPassing clouds.6 mph68%30.12 "Hg5 mi
4:00 AM61 °FPassing clouds.3 mph72%30.12 "Hg5 mi
Weather by CustomWeather, © 2014

See weather overviewHow to use our weather pages